Location: Mohawk View
(42.7837°N, 73.7885°W)
Time: 13:23:26
(UTC+00:00)

SL-16 R/B - Pass Details

Date: 17 June 2021
Orbit: 842 x 847 km, 71.0° (Epoch: 30 July)

Event Time Altitude Azimuth Distance (km) Brightness Sun altitude
Exits shadow 06:07:46 27° 253° (WSW) 1,572 3.3 -21.8°
Maximum altitude 06:10:12 40° 302° (WNW) 1,230 3.1 -21.7°
Drops below altitude 10° 06:15:31 10° 11° (NNE) 2,472 5.8 -21.3°
Sets 06:18:08 0° 19° (NNE) 3,410 6.9 -21.2°
